Whiteman AFB, MO

5:43 PM CST on November 18, 2019 (GMT -0600)
Whiteman Air Force Base

Weather History for KSZL - May, 2019

Change the Weather History Date:

Tuesday, May 14, 2019

  Actual Average Record
Temperature  
Mean Temperature 64 °F -  
Max Temperature 79 °F 73 °F 89 °F (2013)
Min Temperature 47 °F 53 °F 41 °F (2000)
Degree Days  
Heating Degree Days 2    
Growing Degree Days 14 (Base 50)    
Moisture  
Dew Point 59 °F    
Average Humidity 73    
Maximum Humidity 100    
Minimum Humidity 54    
Precipitation  
Precipitation 0.00 in - - ()
Sea Level Pressure  
Sea Level Pressure 29.88 in    
Wind  
Wind Speed 9 mph (South)    
Max Wind Speed 16 mph    
Max Gust Speed 23 mph    
Visibility 10 miles    
Events      
Averages and records for this station are not official NWS values.
T = Trace of Precipitation, MM = Missing Value Source: NWS Daily Summary

Daily Weather History Graph

Daily Weather History Graph

Search for Another Location

Airport or City:

Astronomy

May. 14, 2019 Rise Set
Actual Time 6:03 AM CDT 8:18 PM CDT
Civil Twilight 5:33 AM CDT 8:48 PM CDT
Nautical Twilight 4:56 AM CDT 9:25 PM CDT
Astronomical Twilight 4:16 AM CDT 10:05 PM CDT
Moon 3:44 PM CDT (5/14) 3:52 AM CDT (5/14)
Length of Visible Light 15h 14m
Length of Day
14h 15m
Waxing Gibbous, 79% of the Moon is Illuminated
May 14
Waxing Gibbous
May 18
Full
May 26
Last Quarter
Jun 3
New
Jun 10
First Quarter

Hourly Weather History & Observations

Time (CDT) Temp. Heat Index Dew Point Humidity Pressure Visibility Wind Dir Wind Speed Gust Speed Precip Events Conditions
2:56 AM 50.9 °F - 47.8 °F 89% 29.94 in 10.0 mi SE 5.8 mph - N/A   Partly Cloudy
3:56 AM 47.7 °F - 47.7 °F 100% 29.95 in 10.0 mi SSE 5.8 mph - N/A   Clear
4:56 AM 51.8 °F - 48.9 °F 90% 29.95 in 10.0 mi South 9.2 mph - N/A   Clear
5:56 AM 51.3 °F - 49.8 °F 95% 29.95 in 10.0 mi SSE 6.9 mph - N/A   Partly Cloudy
8:56 AM 61.5 °F - 52.3 °F 72% 29.95 in 10.0 mi SSE 9.2 mph - N/A   Partly Cloudy
9:56 AM 66.9 °F - 51.6 °F 58% 29.94 in 10.0 mi South 12.7 mph - N/A   Partly Cloudy
10:56 AM 70.3 °F - 55.2 °F 59% 29.92 in 10.0 mi South 15.0 mph - N/A   Scattered Clouds
1:56 PM 77.5 °F - 62.1 °F 59% 29.88 in 10.0 mi South 12.7 mph - N/A   Mostly Cloudy
2:56 PM 78.3 °F - 62.8 °F 59% 29.86 in 10.0 mi South 16.1 mph - N/A   Partly Cloudy
3:56 PM 79.3 °F - 63.3 °F 58% 29.84 in 10.0 mi SSW 13.8 mph 23.0 mph N/A   Partly Cloudy
3:59 PM 80.6 °F 81.8 °F 62.6 °F 54% 29.84 in 10.0 mi SW 16.1 mph - N/A   Clear
4:56 PM 79.2 °F - 62.1 °F 56% 29.83 in 10.0 mi South 15.0 mph - N/A   Partly Cloudy
5:56 PM 79.0 °F - 63.0 °F 58% 29.83 in 10.0 mi South 10.4 mph - N/A   Partly Cloudy
6:56 PM 77.2 °F - 64.4 °F 65% 29.83 in 10.0 mi SSW 11.5 mph - N/A   Scattered Clouds
7:56 PM 72.7 °F - 66.4 °F 81% 29.83 in 10.0 mi South 5.8 mph - N/A   Partly Cloudy
8:56 PM 70.9 °F - 64.4 °F 80% 29.83 in 10.0 mi South 4.6 mph - N/A   Scattered Clouds
9:56 PM 69.8 °F - 63.0 °F 79% 29.86 in 10.0 mi SSE 3.5 mph - N/A   Mostly Cloudy
10:56 PM 68.7 °F - 64.9 °F 88% 29.86 in 10.0 mi South 6.9 mph - N/A   Overcast
11:56 PM 68.4 °F - 63.0 °F 83% 29.83 in 10.0 mi South 5.8 mph - N/A   Mostly Cloudy